Stations météo

Publicité
Cassley, Grande-Bretagne (99003): Température de l'air & dewpoint: 17.11.2017 11:00:00 - 23.11.2017 11:00:00 (GMT)Cassley, Grande-Bretagne (99003): visibility: 17.11.2017 11:00:00 - 23.11.2017 11:00:00 (GMT)Cassley, Grande-Bretagne (99003): Quantités de précipitations: 17.11.2017 11:00:00 - 23.11.2017 11:00:00 (GMT)
Date & Time tt [°C] td [°C] vv [km] rr [mm]
23.11.2017 11:00:00 - - - -
23.11.2017 10:00:00 1,4 -0,1 - 0,6
23.11.2017 09:00:00 0,9 0,4 - 0,8
23.11.2017 08:00:00 1,5 0,6 - 0,8
23.11.2017 07:00:00 1,5 0,4 - 1,4
23.11.2017 06:00:00 1,6 0,6 - 3,0
23.11.2017 05:00:00 1,4 1,1 - 2,0
23.11.2017 04:00:00 0,4 0,3 - 1,2
23.11.2017 03:00:00 - - - 0,8
23.11.2017 02:00:00 0,3 0,0 - 0,6
23.11.2017 01:00:00 0,4 -0,1 - -
23.11.2017 00:00:00 1,6 0,2 - 0,0
22.11.2017 23:00:00 1,0 -0,6 - 0,0
22.11.2017 22:00:00 0,3 -0,8 - 0,0
22.11.2017 21:00:00 0,1 -0,6 - 0,0
22.11.2017 20:00:00 -0,1 -1,2 - 0,0
22.11.2017 19:00:00 0,8 -0,1 - 0,0
22.11.2017 18:00:00 0,3 -0,9 - 0,0
22.11.2017 17:00:00 1,1 -0,4 - 0,0
22.11.2017 16:00:00 - - - 0,0
22.11.2017 15:00:00 3,9 -0,4 - 0,0
22.11.2017 14:00:00 3,6 0,7 - 0,0
22.11.2017 13:00:00 3,4 0,9 - 0,0
22.11.2017 12:00:00 3,7 0,3 - 0,0
22.11.2017 11:00:00 3,2 1,1 - 0,0
22.11.2017 10:00:00 3,1 0,6 - 0,0
22.11.2017 09:00:00 3,4 1,5 - 0,4
22.11.2017 08:00:00 3,6 2,0 - 0,4
22.11.2017 07:00:00 4,5 3,0 - 0,8
22.11.2017 06:00:00 5,2 3,8 - 0,4
22.11.2017 05:00:00 5,3 4,2 - 0,2
22.11.2017 04:00:00 6,3 4,8 - 0,0
22.11.2017 03:00:00 6,4 5,0 - 0,0
22.11.2017 02:00:00 5,6 5,1 - 0,0
22.11.2017 01:00:00 5,7 4,7 - 0,0
22.11.2017 00:00:00 6,2 5,3 - 0,0
21.11.2017 23:00:00 5,1 4,7 - -
21.11.2017 22:00:00 4,6 4,4 - 0,0
21.11.2017 21:00:00 4,3 4,2 - 0,2
21.11.2017 20:00:00 4,6 4,5 - 0,6
21.11.2017 19:00:00 5,0 4,9 - 0,8
21.11.2017 18:00:00 5,2 5,0 - 1,0
21.11.2017 17:00:00 5,1 4,9 - 1,0
21.11.2017 16:00:00 5,3 5,0 - 1,4
21.11.2017 15:00:00 5,7 5,2 - -
21.11.2017 14:00:00 5,6 5,0 - 0,8
21.11.2017 13:00:00 5,4 5,0 - 1,0
21.11.2017 12:00:00 5,4 4,7 - 1,4
21.11.2017 11:00:00 5,0 4,3 - -
21.11.2017 10:00:00 4,8 4,3 - 3,4
21.11.2017 09:00:00 4,5 4,0 - 2,0
21.11.2017 08:00:00 4,6 4,1 - 2,2
21.11.2017 07:00:00 4,4 4,0 - 1,8
21.11.2017 06:00:00 4,3 3,9 - 1,2
21.11.2017 05:00:00 4,1 3,7 - 1,0
21.11.2017 04:00:00 4,3 3,8 - 1,2
21.11.2017 03:00:00 3,6 2,9 - 0,6
21.11.2017 02:00:00 3,5 2,7 - 1,2
21.11.2017 01:00:00 3,6 2,5 - 1,4
21.11.2017 00:00:00 3,6 2,4 - 2,0
20.11.2017 23:00:00 3,6 2,5 - 1,8
20.11.2017 22:00:00 - - - 1,4
20.11.2017 21:00:00 4,1 3,3 - 0,8
20.11.2017 20:00:00 4,5 3,7 - 0,2
20.11.2017 19:00:00 4,9 4,2 - 0,4
20.11.2017 18:00:00 4,5 4,0 - 0,8
20.11.2017 17:00:00 4,7 4,0 - 0,0
20.11.2017 16:00:00 5,2 4,2 - 0,0
20.11.2017 15:00:00 5,3 4,7 - 0,0
20.11.2017 14:00:00 5,3 4,8 - 0,0
20.11.2017 13:00:00 5,3 4,6 10 0,0
20.11.2017 12:00:00 4,8 4,1 - 0,0
20.11.2017 11:00:00 4,4 3,7 - 0,0
20.11.2017 10:00:00 3,9 3,0 - 0,2
20.11.2017 09:00:00 3,6 2,7 - 0,4
20.11.2017 08:00:00 3,6 2,8 - 1,0
20.11.2017 07:00:00 3,4 2,7 - 0,8
20.11.2017 06:00:00 3,2 2,4 - 2,4
20.11.2017 05:00:00 2,8 2,4 - 0,4
20.11.2017 04:00:00 2,6 2,1 - 0,4
20.11.2017 03:00:00 - - - 0,8
20.11.2017 02:00:00 2,5 1,8 - -
20.11.2017 01:00:00 2,3 1,7 - 0,4
20.11.2017 00:00:00 2,6 2,0 - 0,2
19.11.2017 23:00:00 2,5 1,9 - 0,0
19.11.2017 22:00:00 2,5 2,0 - 0,0
19.11.2017 21:00:00 2,7 2,4 - 0,0
19.11.2017 20:00:00 2,5 2,1 - 0,0
19.11.2017 19:00:00 2,8 2,2 - 0,0
19.11.2017 18:00:00 2,9 2,4 - 0,0
19.11.2017 17:00:00 3,0 2,4 - 0,0
19.11.2017 16:00:00 3,5 2,5 - 0,0
19.11.2017 15:00:00 3,8 2,6 - 0,0
19.11.2017 14:00:00 4,2 3,0 - 0,0
19.11.2017 13:00:00 4,1 2,6 - 0,2
19.11.2017 12:00:00 - - - 0,0
19.11.2017 11:00:00 2,3 1,4 - 0,0
19.11.2017 10:00:00 2,2 1,6 - 0,0
19.11.2017 09:00:00 1,8 1,0 - 0,0
19.11.2017 08:00:00 2,9 1,6 - -
19.11.2017 07:00:00 3,3 1,9 - 0,2
19.11.2017 06:00:00 2,3 1,2 - 0,0
19.11.2017 05:00:00 2,4 0,9 - 0,0
19.11.2017 04:00:00 2,1 0,5 - 0,4
19.11.2017 03:00:00 2,3 0,1 - 0,0
19.11.2017 02:00:00 2,5 0,2 - -
19.11.2017 01:00:00 3,9 1,9 - 0,2
19.11.2017 00:00:00 3,3 -0,1 - 0,0
18.11.2017 23:00:00 3,8 0,2 - 0,0
18.11.2017 22:00:00 3,0 0,1 - 0,0
18.11.2017 21:00:00 4,0 1,6 - 0,0
18.11.2017 20:00:00 4,2 0,6 - 0,0
18.11.2017 19:00:00 4,4 2,2 - 0,6
18.11.2017 18:00:00 4,0 2,2 - 0,6
18.11.2017 17:00:00 4,0 2,4 - 1,0
18.11.2017 16:00:00 3,9 1,9 - 0,4
18.11.2017 15:00:00 4,4 2,7 - 1,0
18.11.2017 14:00:00 3,9 2,5 - 1,6
18.11.2017 13:00:00 5,1 2,6 - 0,4
18.11.2017 12:00:00 6,0 0,8 - 0,0
18.11.2017 11:00:00 5,1 1,6 - 0,0
18.11.2017 10:00:00 4,9 -0,7 - 0,2
18.11.2017 09:00:00 4,9 -1,0 - 0,0
18.11.2017 08:00:00 4,4 -2,3 - 0,0
18.11.2017 07:00:00 4,1 -1,0 - 0,0
18.11.2017 06:00:00 3,6 -2,9 - 0,2
18.11.2017 05:00:00 4,3 -2,4 - 0,0
18.11.2017 04:00:00 4,6 -0,4 - 0,0
18.11.2017 03:00:00 3,9 0,5 - 0,2
18.11.2017 02:00:00 4,4 0,7 - 0,2
18.11.2017 01:00:00 4,2 1,5 - 0,4
18.11.2017 00:00:00 2,7 1,1 - 1,2
17.11.2017 23:00:00 4,7 2,2 - 1,0
17.11.2017 22:00:00 4,7 1,6 - 0,2
17.11.2017 21:00:00 4,7 2,5 - 0,4
17.11.2017 20:00:00 6,1 3,2 - 0,2
17.11.2017 19:00:00 5,5 2,9 - 1,2
17.11.2017 18:00:00 5,4 3,7 - 2,2
17.11.2017 17:00:00 6,0 3,9 - 0,8
17.11.2017 16:00:00 6,4 4,2 - 0,6
17.11.2017 15:00:00 6,4 4,0 - 0,6
17.11.2017 14:00:00 5,8 4,2 - 1,6
17.11.2017 13:00:00 6,7 4,9 - 0,8
17.11.2017 12:00:00 7,0 4,3 - 1,4
17.11.2017 11:00:00 5,9 4,0 - 0,6

tt = Température de l'air
td = dewpoint
vv = visibility
rr = Quantités de précipitations

stations d'obs. à proximité